RH
30 29 28 27 27 27 26 26 25 25 25 24 24 24 25 25 25 25 25 24 23 22 21 21 20 18 16 15 13 12 11 12 13 13 15 17 18 18 19 21 21 21 21 19 19 19 20 22 20 17 13 10 9 7 9 8 8 9 10 12 8 4 6 13 26 29 21 21 25 23 23 24 24 25 30 30 25 23 20 12 7 9 8 15 17 6 7 9
33 31 29 28 27 28 27 27 26 26 26 25 25 25 25 25 25 25 25 24 25 24 23 22 21 21 18 17 15 13 12 11 12 13 14 16 18 19 18 20 21 22 22 20 20 19 19 21 22 19 13 10 9 8 8 8 8 9 8 10 10 6 4 7 17 23 20 19 19 15 15 16 14 15 20 21 23 31 26 10 6 7 6 8 6 5 7 6
30 32 32 30 28 27 27 28 27 27 27 26 26 26 25 26 25 25 25 24 25 24 24 23 22 22 21 19 17 15 13 12 12 12 13 14 16 19 19 19 20 22 23 22 21 20 19 20 22 22 16 11 10 9 8 8 8 8 8 9 9 8 7 8 10 16 21 21 19 16 15 12 13 15 16 16 22 38 36 15 7 6 6 6 5 5 5 6
25 29 31 32 30 27 27 27 28 28 27 27 27 26 26 25 25 25 25 24 24 25 24 24 23 23 22 21 19 17 15 13 12 12 12 13 14 17 19 19 19 21 23 23 22 20 20 20 22 23 18 13 10 9 8 8 8 8 9 8 8 9 9 10 11 14 18 20 19 15 15 14 15 17 17 17 19 29 35 23 10 8 8 7 6 6 5 5
22 23 26 28 30 29 27 26 27 28 28 28 27 27 27 25 25 25 25 24 23 24 24 24 24 23 23 22 21 19 17 15 14 12 12 13 13 15 17 20 20 20 23 24 23 22 20 20 22 24 21 14 10 10 9 7 8 8 9 9 9 9 9 10 10 12 15 18 18 14 16 18 19 20 21 24 20 19 24 21 12 9 10 7 6 6 5 6
23 22 22 23 26 27 27 26 25 27 28 28 28 27 27 27 26 25 24 24 23 23 23 24 24 24 23 22 22 20 18 17 15 14 13 12 13 14 15 18 20 20 22 24 24 23 21 20 21 23 23 16 10 9 8 8 7 8 9 8 9 9 10 10 10 11 12 15 17 16 17 17 23 24 23 28 28 23 22 20 18 15 11 9 7 5 6 7
23 23 22 22 22 24 25 25 24 25 26 28 28 27 27 27 27 26 25 24 24 23 23 23 23 24 24 23 22 21 20 18 17 16 15 13 13 13 14 15 18 20 21 23 25 24 22 21 21 23 24 19 12 8 8 8 7 8 8 8 9 9 9 10 11 12 12 16 16 16 14 16 32 34 25 23 19 17 17 17 19 18 15 13 10 7 7 9
21 22 23 23 22 22 22 22 23 23 25 26 27 27 27 28 27 27 26 25 24 23 23 23 23 24 23 23 23 22 21 19 18 17 16 15 14 13 14 14 16 19 21 22 24 25 24 22 21 22 25 23 14 9 8 8 8 8 8 8 8 9 10 10 11 12 12 15 15 17 14 18 37 42 36 24 11 10 12 13 16 16 18 16 13 12 11 11
19 19 21 23 23 23 22 21 21 22 23 25 26 26 26 27 27 27 27 26 25 24 24 23 23 23 24 24 23 23 21 20 20 19 18 17 16 14 14 14 14 17 21 21 23 25 25 23 22 22 24 25 19 11 8 9 9 8 8 9 9 10 12 12 12 10 11 13 13 16 15 21 32 34 37 25 8 8 10 9 15 16 17 17 16 15 14 12
18 18 18 20 21 23 24 23 22 21 21 22 24 25 25 26 27 27 27 26 26 25 24 24 24 23 24 24 23 23 22 22 21 20 20 18 18 16 14 14 13 15 19 21 22 24 26 24 23 22 23 25 23 16 10 9 9 9 9 8 8 10 12 15 16 13 14 14 11 12 16 19 17 24 43 37 13 9 12 12 13 15 15 16 16 16 15 14
19 18 18 18 18 20 22 24 24 22 21 21 22 23 24 26 26 27 27 26 26 25 25 24 24 24 24 24 24 24 23 23 22 21 21 20 19 18 16 15 14 14 16 20 22 23 26 26 24 23 22 24 25 22 14 10 9 9 10 9 9 9 10 16 24 30 30 28 27 22 18 14 13 31 45 32 16 11 12 14 14 14 15 17 17 16 15 15
22 20 19 18 18 18 19 21 23 24 23 21 21 21 22 24 26 26 26 26 26 26 25 25 25 24 24 24 24 24 24 23 23 22 22 21 20 19 18 16 15 14 14 18 21 23 26 27 26 23 23 23 24 25 20 12 10 9 10 10 9 9 10 13 20 30 27 32 47 38 19 13 21 38 30 11 14 14 12 19 21 16 14 17 16 15 16 16
23 22 21 19 18 17 17 18 20 22 24 24 22 20 20 22 23 25 25 26 26 26 25 25 25 25 24 24 24 24 24 24 24 24 23 22 22 20 20 18 16 15 14 16 19 23 24 26 27 25 24 23 23 26 24 18 12 10 10 10 10 10 10 11 14 20 17 20 41 40 24 20 20 23 16 10 15 13 13 20 22 17 14 15 14 14 15 14
21 22 23 22 19 18 17 17 17 18 21 25 25 23 21 20 21 22 23 24 25 26 26 25 25 25 24 24 24 24 24 24 24 24 24 23 23 21 21 20 17 15 14 14 17 21 23 25 28 27 25 24 23 24 25 24 17 11 11 11 11 11 10 11 11 17 18 13 23 32 27 21 17 15 13 13 14 14 14 14 16 15 13 15 14 13 14 13
19 20 22 23 22 20 18 17 17 17 17 20 24 26 24 22 21 20 21 21 22 24 25 25 25 25 25 24 24 24 23 24 24 24 24 24 24 23 22 21 20 16 15 14 15 19 22 24 26 28 27 25 25 24 25 26 23 17 13 11 11 12 12 13 12 12 15 13 16 29 29 19 18 18 14 13 13 15 14 14 19 17 13 13 13 13 14 15
19 19 20 21 23 22 20 18 17 18 17 17 19 23 26 25 23 21 20 20 20 21 23 24 24 24 25 25 24 24 23 23 23 24 24 24 24 23 23 22 21 18 16 15 14 16 21 23 24 27 28 27 26 25 25 25 26 24 18 13 11 12 12 12 14 11 13 15 12 20 30 25 20 17 14 14 14 13 12 15 21 21 18 15 13 16 16 17
20 19 19 19 21 22 23 21 19 18 18 18 16 18 22 26 26 25 23 21 20 20 21 23 23 24 24 24 24 24 24 23 23 23 23 24 24 24 23 22 22 21 17 15 14 14 18 22 23 25 28 28 27 27 27 25 26 27 24 18 11 11 13 12 14 12 12 15 12 18 29 27 24 22 18 15 14 13 15 19 19 16 20 17 17 27 25 18
23 21 20 19 19 20 22 23 22 20 19 19 18 17 17 21 25 26 26 24 23 21 21 21 21 22 23 24 25 24 24 23 23 23 23 23 23 23 23 23 22 22 19 16 15 14 15 20 23 23 26 28 29 28 28 27 26 26 27 25 18 13 12 12 14 14 12 13 14 21 25 21 20 20 17 15 16 14 14 18 17 12 18 20 18 33 39 28
24 23 22 20 19 19 19 21 23 24 22 20 18 18 17 17 20 23 26 26 26 24 23 22 21 21 22 23 24 24 23 23 23 23 23 23 23 23 23 23 23 22 21 18 16 15 14 17 21 23 24 27 29 29 28 28 27 27 27 27 26 21 15 13 13 14 14 13 14 16 19 17 15 16 13 13 15 14 13 14 15 13 19 29 29 34 41 37
22 24 24 22 20 19 18 19 21 24 26 24 21 19 19 19 18 19 23 25 26 26 25 24 22 21 21 21 22 23 23 23 23 23 23 22 22 22 23 23 23 22 22 20 17 15 14 15 19 22 23 25 28 30 29 29 28 28 27 26 28 27 23 18 15 14 12 12 13 14 17 18 17 22 17 12 13 14 16 15 15 15 15 30 35 29 36 38
22 23 24 24 22 20 19 18 19 21 25 27 26 22 20 20 20 19 20 20 23 26 27 26 25 23 22 21 21 21 22 23 23 23 23 23 22 22 22 22 23 23 22 21 19 16 15 14 16 20 23 24 26 29 30 30 30 29 28 27 27 27 28 25 20 16 12 11 12 13 22 23 19 24 19 12 14 13 15 14 16 18 14 30 41 34 45 42
21 22 23 24 23 22 21 19 18 19 22 25 27 27 25 22 21 21 20 19 19 22 25 27 28 27 24 23 21 19 20 22 22 23 23 23 23 22 22 22 23 23 22 22 20 17 16 15 15 18 21 24 25 27 29 30 31 30 30 30 28 27 27 28 27 22 17 13 10 13 23 24 14 17 18 13 13 12 14 13 13 17 13 26 38 32 37 35
17 20 22 22 23 23 22 21 19 18 19 22 25 27 28 26 23 22 22 21 20 20 22 25 28 28 28 26 24 22 20 20 20 21 22 22 23 22 21 21 22 23 23 22 21 18 17 16 15 16 18 22 25 26 28 29 31 31 31 32 31 30 28 27 28 27 25 19 14 13 14 22 20 12 12 14 13 12 13 13 12 14 12 16 22 20 23 32
13 15 18 20 21 22 22 22 21 19 18 19 21 24 27 28 27 26 24 23 22 21 20 22 25 27 29 28 27 26 22 21 19 19 21 21 23 22 21 21 21 23 23 22 22 19 18 16 16 16 17 19 22 26 28 28 30 31 32 33 32 33 31 30 29 28 29 24 23 19 11 25 38 23 12 12 12 13 13 13 12 12 13 13 14 16 17 22
11 12 14 16 17 19 20 21 21 21 20 19 19 21 24 26 28 28 28 26 24 23 21 21 22 23 25 28 29 29 27 24 22 20 20 20 21 21 20 20 20 22 23 22 22 21 19 17 16 16 16 18 20 24 28 29 30 29 31 33 32 33 32 32 32 30 31 27 26 27 20 29 42 35 26 18 11 13 13 13 14 13 14 14 12 15 17 16
11 11 11 12 14 15 17 18 20 21 21 20 19 19 21 23 26 28 30 31 27 24 23 22 23 21 22 25 26 28 29 28 26 23 21 20 20 20 19 19 19 20 22 22 22 21 20 18 17 17 17 18 19 21 26 30 31 30 30 31 31 33 32 31 33 33 34 31 27 28 27 31 34 32 32 24 14 16 15 12 14 14 13 15 14 12 19 25
11 11 11 11 11 12 13 14 16 18 20 20 20 19 19 20 22 25 28 32 31 27 26 25 24 22 22 23 23 26 30 30 30 28 24 22 20 19 18 18 18 19 21 22 22 22 21 19 17 17 17 18 19 19 24 28 32 33 32 31 30 31 31 30 32 33 34 35 32 30 28 31 31 27 28 26 24 29 26 19 18 17 13 14 17 13 16 28
11 11 11 10 10 10 11 12 13 14 16 18 19 19 19 19 20 21 24 27 29 29 30 28 25 23 22 23 23 25 26 29 32 31 28 25 22 19 17 18 18 18 19 20 22 22 21 20 18 17 17 18 19 19 21 26 32 35 35 35 33 31 30 28 29 30 33 35 34 34 31 30 31 29 29 27 27 33 31 26 30 29 21 18 20 19 15 17
11 11 11 10 10 10 10 11 11 12 13 14 16 17 19 19 19 20 21 22 24 29 33 32 28 25 24 24 23 21 23 29 32 32 30 28 25 22 19 18 17 17 18 19 21 22 21 21 19 17 17 17 18 19 20 23 29 34 36 38 37 35 33 30 29 28 29 32 33 34 34 32 34 33 31 30 28 30 29 28 34 34 29 28 26 26 23 22
11 11 11 10 10 10 10 10 10 10 11 11 12 14 16 18 19 20 20 20 21 25 29 31 31 29 28 26 23 23 25 28 30 30 32 31 29 25 20 19 18 17 17 17 20 22 21 22 20 18 17 17 18 18 19 22 25 29 32 36 38 38 37 36 34 32 29 30 31 33 34 33 35 36 34 34 32 30 29 28 31 30 30 32 30 31 30 34
11 11 11 10 10 10 10 10 10 10 10 10 10 11 12 14 16 18 19 20 20 21 23 26 29 30 31 30 26 27 27 25 27 31 33 32 31 29 24 20 19 18 17 17 19 20 20 22 21 19 17 17 18 18 19 20 22 25 27 31 34 36 38 38 39 39 36 34 32 32 33 31 33 36 36 38 35 32 31 29 29 30 30 30 31 35 34 35
12 11 11 11 10 10 10 10 10 10 9 10 10 10 10 11 12 15 17 19 20 21 21 22 24 27 31 32 30 28 25 24 28 31 32 33 33 32 28 23 20 18 18 17 18 18 20 21 21 20 18 17 17 17 18 19 20 21 22 25 30 32 34 36 37 38 38 38 37 34 34 32 31 33 35 38 38 35 34 31 30 29 30 32 31 33 37 38
12 12 11 11 10 10 10 10 10 10 9 10 10 9 10 9 10 11 13 16 19 21 21 20 21 23 27 30 31 29 26 25 26 28 29 32 32 32 32 28 23 19 18 18 17 17 19 21 21 21 19 18 18 17 18 19 19 20 20 21 25 26 28 30 31 33 33 35 38 38 37 35 32 31 32 35 37 37 36 35 34 31 30 33 33 32 36 39
12 12 12 11 11 10 10 10 10 10 9 9 9 9 10 9 9 10 10 12 15 18 20 20 21 21 22 26 29 30 30 28 27 27 28 28 30 31 33 32 28 22 19 18 18 18 17 19 21 20 20 19 17 17 18 18 18 19 19 20 21 22 23 25 26 27 27 29 33 37 39 39 35 32 32 33 35 36 37 38 38 36 33 32 33 33 33 35
13 13 12 11 11 11 11 10 10 10 9 9 9 9 9 9 9 9 9 10 11 14 17 20 21 21 22 24 26 30 32 31 29 27 26 27 29 32 34 35 34 29 22 18 18 19 18 18 18 19 20 20 18 18 18 18 18 18 18 18 19 20 20 21 22 22 23 25 27 30 35 38 36 34 34 33 33 33 35 38 40 39 37 34 33 34 33 33
13 13 13 12 11 11 11 11 10 10 10 9 9 9 9 9 9 9 10 9 9 10 13 17 20 21 22 22 23 28 31 31 30 28 26 27 29 31 33 35 35 34 28 21 19 18 18 17 17 18 19 19 19 18 18 18 18 18 18 18 18 18 19 19 19 20 21 21 22 24 27 31 33 33 35 34 32 32 32 34 37 39 39 36 35 37 36 36
13 13 13 12 12 11 11 12 11 11 10 9 9 9 9 10 9 9 9 9 9 9 10 13 17 20 22 22 22 24 26 28 31 31 28 28 29 30 32 33 36 37 35 28 21 18 18 17 17 18 18 18 19 19 18 18 18 18 18 18 18 18 18 18 18 18 19 20 20 22 22 25 28 30 34 36 34 32 31 31 34 37 39 38 37 38 38 39
11 12 12 12 12 12 12 12 11 11 10 10 10 10 10 10 9 9 9 8 9 9 9 10 12 16 20 22 22 23 26 30 33 33 31 31 31 31 32 34 35 38 40 36 27 20 19 18 17 18 17 17 18 19 19 18 18 18 18 18 18 19 18 18 18 17 18 18 19 20 21 22 23 25 30 35 35 33 31 31 32 34 38 38 37 38 38 39
11 11 11 11 12 12 12 12 12 11 10 10 10 11 11 10 9 9 9 9 9 9 10 10 10 13 16 20 23 23 26 29 31 33 33 32 32 31 32 33 33 37 42 42 36 26 20 18 17 17 17 17 17 18 20 20 19 18 18 18 18 19 19 19 18 18 18 18 18 19 20 21 21 23 26 30 33 34 32 32 33 34 36 36 37 38 37 38
11 10 10 10 11 11 12 12 12 11 11 11 11 11 11 11 10 10 9 9 9 8 9 9 9 11 12 16 20 22 24 26 28 33 34 34 33 31 31 31 31 36 39 41 40 34 25 20 18 17 17 17 17 17 19 20 19 19 19 19 19 19 19 19 18 18 18 18 18 18 19 20 20 22 24 25 29 33 35 36 36 36 35 35 38 38 37 38
11 11 11 10 10 10 11 11 12 12 12 12 12 11 11 11 10 10 10 9 9 8 9 9 9 9 9 11 15 19 23 26 27 30 32 32 31 30 31 31 32 35 37 40 44 41 34 26 19 18 18 17 17 17 17 18 19 20 20 19 19 20 19 19 18 18 18 18 18 18 18 19 19 22 23 23 27 30 34 38 40 40 38 37 39 40 40 41
12 12 11 10 10 10 10 10 11 12 12 12 12 11 11 11 10 10 10 9 9 8 8 8 8 9 9 10 12 15 21 26 26 29 33 33 33 34 33 32 33 35 37 40 42 41 38 32 24 20 18 17 17 17 17 17 18 19 20 20 21 20 19 20 19 18 19 19 18 18 18 18 18 21 22 23 25 28 31 36 40 41 42 41 41 43 44 44
15 14 12 10 10 10 10 10 10 10 11 11 12 11 11 11 11 10 10 9 9 8 8 8 8 9 9 10 12 13 16 22 24 30 37 37 37 38 36 34 35 35 35 37 39 38 39 38 33 26 20 17 17 17 17 18 17 18 19 20 21 20 20 20 20 19 19 18 17 18 19 18 18 19 21 22 24 26 30 35 39 42 44 45 44 45 47 47
18 17 15 12 10 10 10 10 10 10 10 10 11 11 11 11 11 11 10 9 9 9 9 8 7 8 9 9 10 11 12 16 21 29 36 37 37 38 37 38 38 37 37 38 38 36 36 40 39 33 26 20 17 17 18 18 18 18 18 19 20 20 20 20 20 20 20 18 17 18 19 18 17 18 19 21 22 24 29 33 39 42 44 46 46 46 48 51
21 21 18 14 11 11 11 10 10 10 10 10 10 10 11 11 10 10 10 9 9 9 9 8 8 8 8 9 9 9 11 14 18 26 33 36 36 35 36 40 41 39 37 37 36 30 31 41 44 40 35 27 19 17 17 18 19 18 19 19 19 19 20 20 21 20 20 19 18 18 19 18 18 17 18 20 21 23 27 32 38 43 45 46 46 47 50 52
25 25 21 17 13 12 12 11 11 11 10 10 10 10 10 10 10 10 10 9 9 8 9 9 8 8 8 9 9 9 11 14 15 19 26 30 30 31 36 44 47 43 39 39 35 29 34 42 42 42 42 34 26 21 18 18 19 19 20 19 18 19 19 19 20 20 20 20 19 18 19 19 19 18 17 19 20 21 23 28 36 42 47 48 46 49 49 52
30 30 26 21 17 15 14 13 12 11 11 10 10 10 10 10 10 10 10 9 9 9 9 8 8 9 8 8 9 8 10 13 14 14 19 25 27 31 42 49 50 47 44 44 40 33 37 38 34 41 49 42 35 30 23 19 20 19 20 20 19 19 19 19 20 20 20 20 19 19 18 18 19 18 18 18 20 22 22 26 34 42 49 50 48 50 47 52
38 39 35 27 21 19 17 16 15 13 12 11 11 10 10 10 11 10 10 9 9 9 9 9 9 9 9 9 8 8 10 12 13 13 17 23 24 32 45 49 48 49 49 49 45 39 38 35 34 44 51 46 42 39 30 24 21 19 20 21 21 20 19 19 19 19 20 20 20 20 18 18 18 18 19 19 19 21 22 25 33 42 49 52 50 51 48 50
53 50 44 36 30 25 22 20 18 14 12 12 11 10 10 11 11 10 10 10 10 10 9 9 9 9 9 9 8 9 10 11 12 13 17 20 20 29 44 48 48 53 54 52 50 47 43 40 41 47 48 47 47 45 39 33 25 21 21 22 22 21 20 20 19 19 20 20 20 20 19 18 18 17 18 18 18 19 21 26 33 42 50 53 52 52 50 49
71 62 56 51 42 32 26 24 20 16 14 12 12 11 11 10 10 10 10 10 10 10 9 9 9 9 9 10 9 9 9 9 11 12 15 17 19 27 43 51 52 52 52 50 51 51 49 48 47 45 46 50 51 48 47 43 34 26 23 23 24 24 22 21 20 20 20 20 20 20 19 18 17 17 16 17 17 17 20 26 34 43 50 52 53 53 51 50
82 74 69 64 53 41 33 28 24 20 16 14 13 12 11 10 10 10 11 11 10 10 10 10 9 10 10 10 9 8 8 8 10 11 12 15 18 21 34 48 53 51 47 47 51 53 52 51 48 42 44 52 53 50 51 49 43 37 30 25 24 24 23 21 21 20 19 19 20 20 19 19 17 16 16 16 16 16 19 26 35 44 51 53 54 53 52 52
92 87 80 72 61 50 40 33 28 22 17 15 14 13 12 11 10 11 11 11 11 10 10 10 10 11 11 10 9 9 8 8 9 10 11 14 16 17 23 33 41 44 43 43 47 52 51 49 48 45 46 50 50 51 54 52 47 44 38 31 27 26 24 22 21 20 19 19 19 19 19 18 17 17 17 17 16 15 18 27 37 45 50 53 54 54 54 54
Wind_Speed
28 26 25 23 22 20 19 18 17 16 15 13 12 11 10 10 9 7 7 7 7 9 10 11 12 14 15 16 17 18 19 19 20 21 22 23 23 24 25 27 28 29 30 31 32 33 35 38 39 39 36 35 33 30 26 22 17 11 5 7 9 6 4 4 4 4 5 5 6 9 11 11 10 10 9 9 8 8 8 6 6 5 4 5 5 4 5 5
31 29 28 26 25 24 22 21 20 19 18 16 15 14 12 12 11 10 9 8 8 8 9 11 12 13 14 15 16 17 18 19 19 19 20 22 22 23 24 25 27 28 29 29 30 32 33 36 38 39 37 36 35 33 30 26 21 15 9 7 9 7 4 4 4 4 3 3 4 6 8 10 10 10 10 9 8 7 5 5 4 3 3 3 3 3 4 3
34 33 31 30 28 27 25 24 22 21 20 20 18 17 16 14 14 12 11 10 9 9 9 10 11 12 13 14 14 15 16 18 18 19 19 20 21 22 23 23 25 26 27 28 29 30 31 34 36 38 38 38 36 34 32 28 24 19 14 10 8 7 5 5 4 4 4 4 5 5 6 8 9 10 9 8 7 7 5 3 3 2 2 2 2 2 3 3
37 36 34 33 32 30 29 27 26 24 23 23 21 20 18 17 16 15 14 13 11 10 10 10 11 11 12 13 14 14 15 17 18 18 18 19 20 21 22 23 23 24 26 27 27 28 29 31 34 37 38 38 36 35 33 29 26 23 18 13 9 6 6 6 5 5 4 4 6 6 5 6 7 8 8 7 6 6 5 3 2 1 1 2 2 2 2 3
40 39 37 36 35 34 32 31 29 27 26 25 24 23 21 20 19 18 17 16 14 12 11 11 11 11 12 12 13 13 14 15 17 18 18 19 20 20 21 22 22 23 24 25 26 27 28 29 32 35 37 37 35 34 33 31 29 27 22 16 11 7 6 6 5 4 5 5 7 7 4 4 4 4 5 5 5 4 4 3 2 1 2 2 3 4 4 4
43 42 40 39 38 37 35 34 32 30 29 28 27 26 23 22 21 21 20 19 17 15 13 12 12 11 12 12 12 13 13 13 15 17 18 18 19 20 20 21 22 22 22 24 25 26 26 27 29 33 35 36 36 34 33 33 31 29 25 21 15 11 9 7 5 2 3 5 7 7 5 4 2 2 3 3 3 2 2 2 2 2 3 3 4 5 6 6
45 44 43 42 41 40 39 37 35 33 32 31 30 28 26 25 24 23 22 21 20 18 15 14 13 12 12 12 12 13 12 13 14 15 17 18 19 19 20 20 21 21 21 22 23 24 25 26 27 30 33 35 35 34 33 33 33 30 27 25 22 17 14 11 8 4 0 4 7 8 6 4 2 2 3 3 3 3 3 4 3 4 4 5 5 6 7 7
46 46 45 45 44 43 42 40 38 36 35 33 33 31 29 28 26 25 24 24 22 20 18 16 15 14 13 12 13 13 13 12 13 14 16 17 18 19 19 19 19 20 20 20 21 23 24 25 26 28 31 34 35 35 34 34 34 32 29 27 26 24 20 16 12 8 4 2 6 8 7 5 4 2 3 4 4 4 5 5 5 5 5 6 6 7 7 8
47 47 47 46 46 45 44 43 41 39 37 36 36 34 32 31 29 27 26 26 24 23 21 19 17 15 14 13 13 13 13 13 13 13 14 16 17 18 19 19 19 19 19 19 19 21 23 23 24 26 29 32 34 34 34 34 33 32 31 29 28 28 25 20 15 10 6 3 1 5 5 5 5 4 5 6 5 6 5 6 6 6 6 7 7 8 8 9
47 47 47 47 47 47 47 46 44 42 40 39 38 37 35 33 32 30 29 28 26 25 23 21 19 17 16 15 14 14 14 13 13 13 14 15 16 18 18 19 19 18 18 18 18 19 21 22 23 24 26 29 32 33 33 33 32 32 32 31 30 29 26 22 17 12 10 7 4 3 2 3 4 4 5 5 5 6 7 7 7 7 8 8 8 8 9 9
48 48 48 48 48 48 48 48 46 44 43 41 41 39 37 36 35 33 32 31 29 27 26 24 21 20 18 17 16 15 14 14 14 14 14 15 16 17 18 18 19 18 17 17 17 17 19 20 21 22 24 27 30 32 32 32 32 31 31 32 30 29 26 23 19 16 14 11 10 9 7 3 1 1 4 6 5 6 7 7 7 7 7 8 8 9 9 9
50 50 49 49 48 48 49 48 48 47 45 44 43 42 40 39 37 36 35 33 31 30 28 26 24 22 20 19 18 16 15 15 15 15 15 15 15 17 18 18 18 18 17 16 16 15 16 18 20 21 22 24 27 29 30 31 31 31 31 31 30 29 26 24 21 19 18 16 15 13 11 8 5 2 4 6 5 5 5 5 7 7 6 6 7 8 9 9
53 52 51 50 50 49 49 49 49 48 47 46 46 44 43 41 39 38 38 36 34 32 30 29 27 24 23 21 20 18 17 16 15 16 16 15 16 16 18 18 18 18 17 16 15 15 14 16 18 19 20 22 24 26 28 30 30 30 31 31 30 29 26 24 22 20 20 19 16 14 11 10 7 4 4 4 3 4 3 2 5 6 5 5 6 6 7 7
56 55 54 52 52 51 50 50 49 49 48 48 48 47 45 44 42 41 40 39 36 35 33 31 29 27 26 24 22 21 19 17 17 16 16 16 16 17 18 18 18 18 17 16 15 14 13 14 15 17 18 20 22 23 26 29 29 29 30 30 29 29 27 25 22 20 20 19 16 15 13 12 10 7 6 5 4 5 4 3 3 4 4 4 5 5 4 4
59 58 57 55 54 53 52 51 51 49 48 49 50 49 47 46 45 43 42 41 39 37 36 33 32 30 28 26 25 23 21 20 18 17 17 17 17 17 18 19 19 18 17 16 15 14 13 12 13 14 16 17 19 21 23 26 27 29 29 28 29 29 27 25 24 21 19 17 16 15 14 13 12 9 8 7 6 5 4 4 3 3 4 4 4 4 4 4
62 61 60 58 57 55 54 53 52 51 50 49 50 50 49 48 47 46 45 43 42 40 38 36 35 33 30 30 28 25 24 22 20 19 19 18 18 18 18 19 19 19 18 17 15 14 13 12 11 12 14 15 17 19 21 22 25 27 28 27 27 28 27 25 24 23 20 17 16 14 12 12 11 10 9 8 7 6 5 4 3 3 4 5 5 5 6 6
64 64 62 61 60 58 57 55 54 53 52 51 50 50 50 50 50 48 47 46 44 42 41 39 38 36 34 32 29 28 27 25 23 22 20 19 19 19 19 19 19 20 19 18 16 15 13 12 11 11 11 13 15 17 18 20 22 24 25 25 25 26 27 26 24 24 23 20 17 13 11 10 9 9 9 8 7 7 6 5 4 4 4 5 6 7 8 8
67 66 65 64 62 61 60 58 57 55 54 53 52 51 50 51 51 50 50 48 47 45 43 42 41 39 36 33 32 32 31 28 26 24 23 21 21 21 20 20 20 20 20 19 17 16 14 12 11 10 10 11 12 14 16 17 19 20 22 23 24 24 25 25 24 23 23 22 20 17 14 11 10 10 9 9 8 8 8 7 6 7 6 7 8 7 7 9
69 68 67 66 65 63 62 61 60 58 56 55 54 53 51 51 51 51 51 51 50 48 46 44 43 41 39 37 36 35 33 31 29 27 25 24 23 22 21 21 21 21 21 20 19 17 16 13 12 10 10 9 10 11 13 14 16 17 18 20 22 23 23 23 22 22 22 21 20 19 18 15 14 13 12 12 12 12 12 11 10 10 10 8 9 9 8 9
71 70 69 68 67 66 65 63 62 61 59 58 56 55 53 52 51 51 52 52 51 50 49 47 45 43 42 40 39 38 35 34 32 30 29 26 25 24 22 22 22 21 21 21 20 19 17 15 13 11 10 9 9 9 10 12 13 15 16 17 19 20 22 21 20 20 20 20 19 19 19 18 16 15 15 16 16 16 15 15 15 14 13 11 10 11 11 10
72 71 71 70 69 68 67 65 64 63 62 61 59 57 55 54 52 52 53 53 52 52 51 50 48 46 45 43 42 40 38 37 35 34 32 30 28 27 25 24 23 22 22 22 21 20 19 17 15 13 11 10 9 8 8 9 10 12 13 14 15 16 18 19 18 18 17 17 17 17 17 17 17 15 16 17 17 17 17 17 16 15 16 14 11 13 11 11
73 73 72 71 71 70 69 67 66 65 64 63 62 60 58 56 54 54 54 53 52 53 52 51 50 49 48 46 44 42 40 39 38 36 35 33 31 29 27 26 25 24 23 23 22 21 20 19 17 15 12 11 10 8 7 8 8 9 11 12 13 13 14 16 16 16 16 14 14 15 14 14 16 15 16 17 17 17 17 17 17 16 17 15 12 14 12 12
73 73 73 72 72 71 70 69 68 66 65 64 64 62 61 59 57 56 55 55 54 53 53 53 52 51 50 48 47 45 43 42 41 39 37 35 34 33 30 28 26 26 25 24 23 22 21 21 20 17 15 13 11 10 8 7 7 8 9 10 11 11 12 13 14 14 14 13 13 13 12 11 13 15 15 15 15 16 16 16 16 16 17 16 15 16 15 15
73 73 73 73 73 72 72 71 70 69 67 66 65 64 63 61 60 58 57 56 55 55 54 54 53 53 52 51 49 47 45 44 43 41 39 38 37 36 33 30 29 28 26 25 24 23 22 22 22 20 18 16 14 12 10 8 8 8 7 8 9 10 11 11 12 12 12 12 12 13 13 10 11 13 13 14 15 15 15 15 15 15 15 15 16 16 17 17
73 73 73 73 73 73 73 72 72 71 69 68 66 65 64 63 62 60 59 58 57 57 56 55 54 55 54 53 52 50 48 46 44 43 41 40 39 38 35 33 31 30 29 27 26 25 24 24 23 22 21 19 17 15 13 11 10 9 8 8 8 9 9 9 10 11 11 11 11 12 13 12 10 11 13 14 15 15 15 15 15 16 15 15 16 16 16 17
74 73 72 72 73 73 73 72 72 72 71 70 68 67 65 64 63 62 61 61 60 59 57 56 56 55 54 54 53 52 50 48 47 45 44 42 41 40 37 35 34 32 31 30 28 26 25 25 25 24 23 21 19 18 16 14 12 11 10 10 10 10 10 9 9 11 11 11 10 10 11 11 10 10 11 14 15 15 17 17 17 17 17 17 17 18 18 17
76 75 73 73 73 73 73 72 72 72 72 71 70 69 68 66 64 63 63 63 63 61 59 59 59 57 55 55 54 53 52 51 49 48 46 45 43 42 39 37 35 34 34 32 30 28 27 27 26 25 24 23 21 20 19 18 16 14 12 12 12 11 11 11 10 11 11 12 11 10 10 11 11 11 11 14 15 15 16 18 18 19 20 20 19 21 20 18
77 76 75 74 73 73 73 73 72 72 72 72 71 71 70 68 66 65 65 65 65 62 61 61 60 58 56 55 55 55 54 53 51 50 49 47 45 43 40 38 37 37 37 35 32 30 30 29 28 27 26 24 23 22 21 20 19 18 16 15 15 14 13 13 12 12 11 13 13 12 11 11 12 13 13 13 14 14 16 18 17 19 22 23 22 22 23 21
79 78 77 76 74 74 74 73 73 72 71 72 72 72 71 70 69 68 67 67 64 62 63 63 62 60 58 57 57 56 54 54 54 53 51 49 47 45 42 40 40 39 39 37 35 33 32 31 30 29 28 27 25 24 23 22 22 22 20 19 19 17 16 15 14 14 13 13 14 14 13 12 12 14 15 15 15 15 16 18 18 19 22 24 24 24 25 24
81 80 79 77 76 75 74 74 74 73 72 72 72 72 72 72 71 71 70 69 65 64 65 65 64 62 60 60 59 55 56 57 56 54 53 51 49 47 45 42 41 42 42 39 37 36 34 32 32 31 30 29 27 26 25 24 24 24 23 22 21 20 19 18 17 16 16 16 16 16 15 14 13 15 16 17 17 17 17 18 18 20 22 24 25 25 26 26
83 82 81 79 77 77 76 75 75 74 73 73 73 72 72 72 73 72 72 70 67 66 67 67 66 64 63 62 60 58 59 59 57 56 55 54 51 49 47 44 43 45 43 41 41 39 36 35 35 34 32 31 30 28 27 26 26 26 25 24 24 23 22 21 20 19 18 18 18 18 18 17 15 16 17 19 19 19 19 19 19 20 21 24 25 26 27 27
85 85 84 81 80 79 78 76 76 75 74 73 74 73 73 73 73 72 72 71 69 68 69 69 67 66 65 64 63 62 61 59 58 59 58 57 54 52 50 48 47 47 45 44 44 41 38 38 37 36 35 34 32 30 29 29 28 28 27 26 26 26 25 24 24 22 21 20 20 20 20 20 19 17 18 19 21 21 21 21 21 21 22 23 25 26 26 27
86 86 85 84 82 81 80 78 78 77 75 74 74 73 74 74 72 72 72 72 72 72 74 72 69 68 68 66 66 64 62 60 60 60 60 59 57 55 53 51 50 48 46 46 45 43 42 41 41 40 38 36 35 33 32 31 31 30 29 28 28 28 28 27 27 26 24 23 22 21 21 21 21 20 19 19 22 23 23 24 24 24 24 24 25 26 27 27
88 88 87 86 84 83 82 81 80 79 77 76 75 74 74 73 72 73 72 74 75 75 75 73 71 71 69 68 68 66 64 62 61 61 61 60 59 56 54 52 51 50 48 47 46 45 45 45 44 42 40 39 38 36 35 34 34 33 31 30 30 30 29 29 29 29 28 26 25 24 24 24 23 22 22 21 22 24 25 26 26 26 26 25 26 27 28 29
89 89 89 87 86 85 84 83 82 81 79 77 76 75 73 71 72 73 74 77 77 75 75 75 74 73 71 70 69 67 66 65 64 63 62 61 60 58 56 55 53 52 51 48 47 48 48 48 47 44 43 42 40 39 39 38 37 35 33 32 32 31 31 32 31 31 31 29 29 28 27 27 26 24 24 24 24 24 26 27 28 29 28 28 28 28 29 30
90 90 90 89 88 87 86 85 84 83 81 79 77 76 73 71 72 74 78 81 78 76 77 77 77 76 75 73 71 69 69 67 66 65 63 62 62 61 59 58 56 55 53 51 50 50 50 50 48 47 47 45 42 41 41 42 40 37 36 35 34 34 33 33 33 33 33 32 32 31 30 30 29 27 26 27 27 26 27 27 28 30 30 30 29 30 32 32
92 92 91 90 89 88 87 87 86 84 83 81 78 76 74 73 74 77 80 80 76 75 77 78 78 78 77 76 74 71 70 68 67 66 64 63 63 63 62 60 58 56 54 55 54 51 52 52 48 49 50 47 44 43 43 44 43 40 40 38 36 36 36 36 36 35 35 35 35 35 34 33 32 30 29 29 29 29 29 29 29 30 31 31 31 30 32 33
92 93 93 92 91 89 88 88 87 86 85 82 79 78 76 76 78 78 78 75 74 75 77 78 80 80 79 79 76 73 71 70 68 68 66 65 66 65 64 63 60 58 57 58 56 53 55 55 50 50 52 49 47 46 45 46 45 44 43 40 38 39 38 38 38 37 36 37 38 38 37 37 36 34 32 33 32 31 31 31 31 31 32 32 32 31 32 33
91 93 94 93 92 91 90 89 88 87 85 82 81 80 79 80 80 77 74 74 74 75 78 80 81 82 82 82 78 75 74 73 71 70 69 68 68 67 66 66 62 60 61 60 59 58 57 56 53 52 53 51 48 47 47 48 48 47 45 42 41 41 41 40 40 39 38 39 40 40 40 40 38 36 36 36 35 34 33 33 33 33 34 34 33 33 34 33
89 91 92 94 93 92 90 90 89 88 86 84 83 82 82 82 81 78 76 76 76 77 81 83 84 85 86 83 81 79 77 75 74 73 71 70 70 69 68 67 63 62 63 62 61 60 58 59 58 54 53 52 50 50 51 51 50 48 48 45 44 44 44 42 41 41 41 41 42 42 42 43 39 38 40 39 38 38 36 36 36 36 36 37 36 36 37 36
88 89 90 92 92 92 91 90 90 89 87 86 86 85 84 84 82 81 80 78 77 79 82 84 84 85 86 84 82 81 79 78 76 75 74 73 72 70 68 66 64 65 65 63 64 63 61 62 61 56 53 53 53 53 54 53 50 50 50 48 48 47 46 44 43 43 42 43 44 44 45 45 41 40 42 42 41 41 40 40 39 39 39 39 39 39 39 40
86 86 88 90 91 90 91 91 90 90 89 88 87 87 86 84 83 83 82 80 80 81 82 83 83 84 84 84 83 82 80 80 78 76 76 74 72 71 70 68 68 68 67 66 66 66 64 63 62 58 54 54 56 54 54 55 53 52 52 51 52 51 48 47 46 44 44 46 46 44 46 48 44 42 43 42 43 43 43 43 43 43 42 42 42 42 41 42
83 83 86 88 88 88 88 89 90 90 90 89 89 88 86 86 86 85 84 83 83 82 82 84 84 83 84 86 86 85 84 82 80 77 78 77 75 74 73 70 70 69 68 67 67 67 65 62 62 60 57 57 58 54 54 57 55 54 55 55 55 53 50 48 48 47 48 48 47 45 48 50 47 44 43 43 44 44 44 45 45 45 45 45 45 45 45 46
81 82 84 85 85 85 85 86 88 88 89 91 90 88 88 89 88 87 86 86 85 84 83 84 84 83 84 87 88 89 86 83 81 80 81 81 78 77 74 72 72 71 70 70 70 68 65 63 63 62 61 60 58 55 57 59 58 58 58 57 55 54 52 50 50 51 51 50 49 48 51 52 49 47 46 45 45 46 45 46 47 47 47 46 46 47 48 48
79 79 81 82 83 82 82 83 85 85 87 88 88 89 90 91 90 89 89 88 86 84 83 84 83 83 84 86 88 89 87 84 84 84 84 83 82 79 76 74 74 75 73 72 72 68 63 64 64 64 63 61 57 57 61 62 61 59 59 58 56 55 54 53 53 53 53 53 52 51 53 54 51 49 49 48 47 47 46 46 47 48 48 47 47 47 49 51
77 77 78 80 80 79 79 80 82 83 85 86 88 90 92 91 91 90 90 89 87 85 84 84 84 84 84 85 88 89 87 87 89 88 87 86 84 80 76 75 76 77 74 73 72 67 64 67 67 64 65 63 59 61 65 64 61 59 59 59 57 56 56 56 55 55 55 55 54 52 54 57 55 53 52 50 49 49 49 48 48 49 50 50 48 48 49 51
75 75 75 76 78 77 77 77 79 80 82 83 86 89 90 91 91 91 91 90 87 85 85 86 85 85 85 86 88 88 89 91 93 90 87 87 84 79 78 78 79 78 74 74 73 68 68 70 66 63 67 65 61 64 67 65 62 61 61 61 59 58 57 57 57 57 58 58 57 55 55 57 58 57 55 52 51 52 52 51 50 51 52 51 51 50 49 49
73 72 72 74 75 75 74 73 75 77 79 80 83 86 87 89 90 91 92 90 87 86 86 86 86 86 86 87 88 89 90 94 95 91 88 88 86 82 81 82 81 78 77 76 74 71 70 70 66 66 70 68 65 67 67 64 63 64 63 62 61 60 59 58 58 58 59 60 60 58 57 58 59 59 57 54 53 54 54 53 53 53 53 53 53 53 52 50
71 70 70 71 72 73 72 71 73 76 77 78 81 83 86 88 90 91 91 89 88 88 86 86 87 87 86 87 89 90 91 94 96 93 91 92 88 83 83 83 81 80 80 79 76 73 70 69 69 70 71 69 69 69 67 65 66 67 66 64 63 61 60 59 59 59 61 62 63 62 60 60 61 61 58 55 55 56 55 55 55 54 55 55 55 56 55 54
70 68 68 68 70 70 70 70 72 74 75 75 77 80 84 88 89 90 90 89 90 89 87 87 88 87 86 88 92 92 91 92 96 96 95 94 90 86 85 85 84 84 84 81 78 75 72 72 73 72 71 71 71 70 69 69 69 69 67 66 64 62 61 61 61 62 63 64 65 65 62 61 62 62 59 57 58 59 57 57 57 57 57 58 58 58 59 58
69 68 67 67 67 68 69 69 69 70 71 73 74 77 81 85 86 87 88 90 90 88 88 87 86 87 88 92 94 93 91 92 96 98 97 95 94 91 89 88 88 87 86 83 80 78 76 75 74 72 71 73 73 72 72 73 72 70 68 67 65 63 63 64 64 64 65 65 66 66 65 64 63 62 60 59 60 61 59 59 59 59 60 60 60 61 62 63
69 68 66 66 65 67 67 66 66 68 68 69 70 73 77 80 82 85 88 90 89 88 88 86 86 88 92 93 93 92 92 93 96 97 99 98 96 95 93 91 90 89 88 85 82 81 80 77 73 71 73 75 74 73 75 77 75 71 68 68 67 65 66 66 66 67 67 67 68 67 66 66 63 61 61 62 62 62 62 61 60 61 62 63 63 64 65 66
Wind_Direction
235 235 234 233 233 233 233 236 242 247 248 249 251 252 256 268 277 287 299 314 328 336 343 348 353 358 3 8 12 16 19 20 19 19 20 23 25 26 28 30 31 32 31 30 31 32 33 34 35 36 38 40 41 43 45 46 49 62 104 164 173 155 156 169 162 187 189 179 180 170 158 151 147 141 137 133 131 127 122 120 118 121 135 154 185 203 202 205
235 236 237 236 235 235 235 235 239 244 249 250 252 254 255 260 269 277 284 296 309 319 328 336 343 349 354 360 6 11 15 17 17 16 16 19 22 23 25 27 29 30 30 29 29 30 31 31 32 33 35 38 39 41 42 43 48 58 73 123 146 139 155 182 182 202 202 203 217 190 161 148 144 137 133 133 132 124 119 111 107 114 128 153 178 193 197 202
234 236 237 238 238 237 237 236 237 241 246 250 252 254 257 260 264 269 276 283 292 304 313 324 332 339 345 350 358 5 11 14 15 14 13 15 18 20 21 24 26 28 29 28 28 29 29 30 31 31 33 36 38 39 41 42 47 53 58 76 106 130 157 178 192 205 208 219 236 221 180 156 148 139 132 136 134 126 122 112 113 127 135 167 183 183 185 188
233 234 236 238 239 239 239 238 238 239 242 247 251 252 255 259 263 267 271 275 281 290 299 309 319 328 336 341 348 357 4 10 12 12 11 12 13 16 18 20 22 25 27 28 27 27 29 29 30 30 32 34 36 39 41 41 45 50 53 62 82 119 153 166 179 193 206 224 237 232 203 171 157 147 140 140 136 128 131 133 141 174 204 219 225 223 215 213
235 234 235 236 238 240 241 240 240 239 241 244 248 250 253 256 261 265 268 272 275 280 287 296 306 315 325 332 338 347 356 4 8 9 9 10 10 11 14 17 19 22 25 26 26 26 28 29 30 30 31 33 36 38 40 42 44 49 50 54 66 89 119 138 152 182 207 225 242 239 217 194 176 160 155 152 150 145 146 156 180 207 238 254 262 264 266 270
236 236 236 236 237 238 240 241 241 241 241 242 245 248 250 253 257 262 265 269 273 275 280 286 294 303 313 321 329 337 347 357 3 6 6 7 8 8 9 12 16 19 22 24 25 25 26 29 30 31 31 32 35 37 39 42 44 46 48 49 53 64 78 91 101 141 208 227 240 240 220 198 201 207 208 194 185 198 222 230 239 260 279 285 288 289 293 296
237 236 236 237 237 237 238 240 241 241 241 242 244 246 248 250 253 257 262 266 269 272 275 279 285 292 301 310 318 327 337 348 356 1 3 3 4 5 5 7 11 16 19 22 23 24 24 27 30 31 31 31 34 37 39 42 43 43 45 47 50 54 60 65 67 65 0 244 243 242 224 195 195 244 258 257 262 273 274 274 277 278 284 286 292 297 301 303
237 237 237 237 237 238 238 239 240 241 241 242 244 245 246 249 250 253 257 261 266 269 272 275 279 284 291 299 308 317 326 337 348 354 357 359 360 2 2 2 6 11 15 19 21 22 23 25 28 30 31 31 33 36 37 41 42 41 42 45 48 51 53 55 51 45 32 278 242 237 227 202 190 222 270 268 273 285 286 287 290 288 289 289 293 295 299 302
236 237 237 238 238 238 239 239 239 240 241 242 243 245 245 247 249 251 253 257 261 266 269 271 275 279 283 290 298 306 315 325 336 345 350 353 355 356 359 359 -0 5 11 15 18 20 22 24 27 29 31 31 33 35 37 40 41 41 41 42 46 48 49 50 47 41 43 37 239 226 226 217 203 210 244 252 259 275 287 293 294 295 295 296 297 297 298 300
235 236 237 238 238 238 239 239 239 239 240 241 243 244 244 245 247 249 251 254 257 261 265 268 271 274 278 283 289 297 305 315 324 333 340 345 348 350 353 355 356 359 4 10 14 18 20 22 25 28 30 32 32 34 37 39 41 42 42 42 44 48 48 48 47 49 56 58 68 98 167 217 218 221 249 265 265 268 276 285 290 296 302 304 304 304 305 307
237 236 236 237 238 238 239 239 239 239 239 240 242 243 243 244 246 248 250 251 254 257 261 264 267 270 273 276 281 288 296 305 313 322 330 336 340 343 346 349 351 354 358 4 10 14 18 20 23 25 28 31 32 33 35 38 40 41 43 43 43 47 48 48 47 49 52 55 61 61 58 52 83 193 278 296 290 275 279 288 293 294 296 300 303 308 312 311
238 237 237 237 237 238 238 239 239 238 238 239 241 242 242 243 245 246 248 250 252 254 257 260 263 265 268 271 275 281 288 296 304 311 319 326 331 335 340 343 346 349 352 356 4 10 14 17 20 23 26 29 31 32 33 36 39 40 43 44 43 45 47 47 48 48 46 47 48 44 41 46 58 61 308 307 304 295 299 308 301 295 293 294 301 308 310 307
237 238 237 237 237 237 238 238 238 238 238 238 240 241 242 243 244 245 247 249 250 252 254 256 259 261 264 267 270 275 280 287 294 302 309 316 322 327 332 337 340 344 347 350 356 3 9 13 17 21 24 26 29 30 31 33 37 39 43 45 44 45 46 45 46 49 48 49 48 45 46 49 48 27 345 331 330 329 334 315 295 301 309 310 311 306 302 300
237 237 237 237 238 238 238 238 238 238 238 238 239 240 240 241 242 244 246 248 249 250 252 254 256 258 260 263 266 270 274 279 286 293 300 306 313 318 324 330 334 338 342 343 347 355 3 8 12 17 22 24 25 27 30 32 33 36 41 44 45 46 46 44 43 46 49 50 51 50 49 50 48 41 32 22 13 3 358 349 318 319 323 317 312 304 301 314
238 237 237 237 237 238 238 238 238 238 237 237 238 239 239 240 241 243 245 246 248 249 250 252 254 255 258 260 262 266 269 273 279 285 291 298 304 309 315 321 327 331 335 337 339 345 354 1 6 12 19 23 24 24 28 30 30 33 37 40 44 47 46 45 43 44 46 47 51 51 45 45 48 44 40 34 28 23 13 11 353 334 332 323 320 322 334 345
238 237 237 236 237 237 238 238 238 238 237 237 237 238 238 239 240 241 243 245 246 248 249 250 252 254 255 256 258 262 266 269 273 278 284 290 296 301 306 313 319 324 327 331 332 335 343 353 358 4 14 21 23 22 24 27 29 32 33 36 42 46 47 47 44 43 44 45 49 53 47 41 41 36 35 32 26 24 22 18 3 358 351 336 339 352 355 350
237 238 238 237 236 236 237 237 238 238 237 237 237 237 238 239 239 240 242 243 245 246 247 249 250 251 252 254 258 260 262 265 268 272 277 282 288 293 298 304 310 316 320 324 325 327 332 342 350 355 4 16 22 22 21 24 28 30 31 32 37 43 47 46 45 43 43 44 46 54 52 40 35 32 27 21 18 17 21 17 0 7 3 350 358 5 0 352
236 237 238 237 237 236 236 237 237 237 237 237 237 237 237 238 239 240 241 242 244 245 246 247 249 250 252 254 256 256 258 261 264 268 272 276 281 286 290 295 301 308 312 316 319 320 323 329 339 347 354 6 17 20 20 22 25 28 29 30 33 39 44 45 45 44 43 43 44 51 55 46 38 33 25 18 15 16 20 20 8 9 10 4 13 20 10 356
235 235 236 237 237 236 236 236 236 237 237 237 237 237 237 237 238 239 240 242 242 244 245 246 247 249 250 251 252 254 257 259 261 264 267 271 275 279 282 287 293 299 304 309 311 314 315 318 325 337 344 352 6 16 17 18 22 25 28 29 31 34 40 42 44 45 44 43 42 45 51 50 44 40 37 33 33 34 36 38 33 31 30 22 23 30 23 8
235 235 235 236 237 237 236 236 236 236 236 237 237 237 237 237 238 239 240 241 242 243 244 245 246 247 248 249 251 253 255 257 259 261 263 267 270 273 276 280 285 290 296 301 305 307 308 310 313 322 333 339 349 4 10 13 17 21 24 27 29 31 36 38 40 43 43 43 41 40 44 46 44 43 41 39 40 41 43 45 44 41 40 42 38 34 32 24
237 236 235 235 235 236 237 236 236 236 236 237 237 237 237 237 237 238 239 240 241 242 243 244 245 246 247 248 249 251 253 255 257 259 261 264 266 269 271 273 277 282 287 294 298 299 301 303 305 308 318 327 332 344 357 3 9 15 18 22 26 28 32 34 36 38 40 41 41 41 43 41 39 38 37 37 37 36 37 40 43 40 37 42 40 33 33 24
237 237 236 235 235 235 236 236 236 236 236 236 237 237 237 237 237 237 239 240 241 241 242 243 244 245 246 247 248 249 251 253 255 257 259 261 264 266 267 268 271 274 279 286 290 292 294 297 298 299 304 311 319 325 335 347 355 5 10 14 19 22 25 29 30 33 36 36 36 40 44 40 35 32 28 28 29 30 30 31 35 35 33 36 34 30 27 18
236 236 237 237 236 235 235 235 236 236 236 236 236 237 237 237 237 237 238 239 240 241 242 242 243 245 246 247 247 248 249 251 253 255 257 259 261 263 264 264 265 267 272 278 282 285 287 290 293 294 295 299 306 310 316 326 333 346 358 2 8 12 15 20 22 25 30 31 30 31 33 33 31 28 23 19 19 21 22 22 24 27 28 28 25 22 21 16
235 235 236 237 237 236 235 234 235 235 235 235 236 236 237 237 237 237 238 239 240 241 241 242 243 244 245 246 246 247 248 250 252 253 255 257 258 260 262 261 260 261 265 271 275 279 281 284 287 289 290 292 295 300 305 308 311 320 333 344 350 356 1 7 11 12 17 24 28 27 23 19 12 10 8 8 8 7 8 11 11 13 17 17 16 14 14 16
236 234 234 235 236 237 236 235 234 235 235 235 235 236 236 237 237 237 238 238 239 240 241 241 242 243 244 245 246 246 247 248 250 252 254 255 256 258 260 259 257 257 260 264 269 273 274 277 281 284 286 288 290 292 296 298 298 301 308 317 326 334 342 352 359 359 1 8 18 24 22 20 9 355 353 355 357 354 353 355 358 359 0 2 5 3 2 8
236 235 234 233 234 236 236 235 234 234 234 234 235 235 236 236 237 237 237 238 239 240 241 242 242 242 243 244 245 246 247 248 249 251 252 253 255 256 257 257 256 255 256 259 263 266 269 271 275 278 281 284 286 288 289 291 291 292 295 299 304 312 320 331 341 345 348 351 1 11 14 17 11 357 354 353 352 350 348 348 348 349 349 350 353 355 354 353
236 235 235 234 233 234 235 235 235 234 234 234 234 235 235 236 236 236 237 238 238 239 240 241 242 242 242 244 245 246 247 247 248 249 251 251 253 254 254 255 254 253 253 255 258 261 264 267 270 272 276 279 282 284 285 287 289 290 290 289 292 296 301 310 319 326 335 338 342 353 359 2 358 353 356 355 351 350 349 346 346 346 347 346 345 349 351 347
235 235 235 234 234 233 234 235 235 234 233 233 234 234 234 235 235 236 236 237 238 238 240 241 242 242 243 243 244 244 245 246 247 249 249 250 251 253 253 253 252 251 251 253 254 257 259 262 265 267 270 274 277 280 283 285 287 289 290 289 289 289 291 295 300 306 317 324 328 336 345 349 349 345 345 347 347 346 346 346 346 346 347 348 347 347 348 348
235 234 234 234 234 234 233 234 234 234 234 233 233 233 233 234 234 235 236 237 238 238 239 241 242 242 243 244 244 244 245 246 247 247 248 249 250 251 251 251 250 250 250 251 252 253 255 258 261 263 265 268 271 275 279 281 283 285 287 288 289 290 291 292 294 297 302 309 317 323 328 336 342 340 337 338 341 341 342 346 347 345 345 347 348 348 347 346
235 234 234 233 233 233 233 233 233 233 233 233 233 232 233 233 233 234 235 237 237 237 238 240 241 241 243 244 244 245 245 245 245 247 248 248 249 249 250 250 250 249 249 250 250 250 252 255 258 259 260 263 266 270 273 275 278 280 282 284 286 289 292 294 296 297 298 301 306 312 317 322 329 333 333 332 334 335 336 341 344 343 342 346 347 347 349 346
235 235 234 233 233 233 233 233 233 233 232 233 233 232 232 232 233 233 234 235 236 236 238 239 239 240 241 243 244 244 244 244 245 247 247 247 247 248 249 249 248 248 248 248 247 249 251 252 254 256 257 259 262 265 268 270 272 275 277 279 282 285 287 291 294 296 298 299 302 305 308 311 317 323 327 327 327 328 330 334 337 338 340 343 345 345 347 348
234 235 234 234 233 232 233 232 233 232 232 232 233 232 232 232 232 233 233 234 234 235 237 238 238 239 240 241 242 243 243 244 244 245 245 246 246 246 246 246 246 247 247 247 248 249 250 250 252 254 254 256 258 260 263 266 268 270 273 275 278 281 283 286 289 292 295 297 299 301 303 305 307 312 317 320 321 323 326 328 330 334 336 338 341 343 342 344
234 234 234 234 233 233 233 232 232 232 231 231 232 232 233 232 232 232 233 233 232 233 235 237 237 238 239 240 241 242 243 243 244 244 244 245 245 244 244 245 246 248 248 248 249 249 248 248 250 251 252 254 255 257 259 262 264 266 269 272 275 278 280 283 286 288 291 294 296 298 299 300 301 304 308 312 315 318 321 324 326 328 331 333 335 338 339 338
233 234 234 234 233 233 233 232 232 232 232 231 231 231 232 233 233 232 233 233 232 233 235 236 236 238 238 239 240 241 242 243 244 244 245 245 245 245 245 245 247 248 248 248 248 248 248 247 248 249 251 253 253 254 256 259 261 263 267 270 272 274 278 281 284 286 288 291 294 296 297 298 298 299 302 305 309 312 316 319 322 324 326 329 331 332 335 336
233 233 234 234 233 233 233 233 232 232 232 231 231 231 231 232 233 233 233 233 232 232 234 235 235 237 237 238 239 240 241 242 243 243 244 245 245 245 245 245 246 247 247 248 248 247 247 247 248 249 251 252 253 253 255 257 259 262 265 267 269 272 275 278 281 283 286 288 290 292 294 295 295 296 298 301 303 307 311 314 318 321 322 325 328 328 329 332
233 233 233 233 233 232 232 233 232 232 232 231 231 231 230 231 232 232 232 232 231 231 232 233 234 235 236 237 237 238 239 240 241 243 244 244 245 245 244 244 244 245 247 247 247 247 248 248 248 249 250 251 252 252 253 256 258 261 263 265 268 271 273 276 279 282 284 286 288 289 290 292 294 295 297 298 300 303 306 310 314 317 319 322 325 326 326 327
233 234 233 233 233 232 232 232 232 232 232 232 231 231 230 231 231 232 232 232 232 232 233 233 234 235 236 237 237 237 238 239 241 242 243 244 245 245 245 245 244 245 246 247 246 247 249 249 247 248 250 250 251 251 253 255 257 259 261 263 267 269 272 275 277 280 283 286 287 287 288 289 291 295 297 297 298 299 302 305 309 312 315 317 320 322 323 324
233 234 234 233 233 232 232 232 232 232 232 232 231 231 231 231 231 232 233 234 233 233 234 234 234 235 235 236 236 236 238 239 239 241 242 243 244 244 245 245 244 244 245 246 247 246 248 249 247 247 250 250 250 252 253 255 256 257 259 262 264 267 270 273 275 279 281 284 286 286 287 287 288 293 296 296 296 297 299 302 305 308 310 312 315 318 319 320
234 234 234 233 233 232 232 232 232 232 232 231 231 231 231 232 232 232 233 233 232 232 233 234 234 235 235 235 235 235 236 237 237 239 240 241 243 243 244 244 244 244 244 245 246 245 246 249 248 247 249 250 250 252 253 254 255 256 258 260 262 264 267 269 273 276 279 281 283 285 286 285 287 292 293 293 294 296 298 300 302 305 307 309 311 313 314 316
234 234 234 233 233 233 232 232 232 232 232 231 231 230 230 231 232 231 231 231 231 231 232 232 232 233 234 234 235 235 235 236 236 238 239 240 241 242 243 244 244 244 244 244 245 245 246 248 248 247 249 251 251 251 252 253 255 257 258 259 261 262 264 267 270 273 276 278 280 282 283 283 286 290 290 291 294 296 298 300 301 302 304 307 309 310 312 313
235 235 234 233 233 233 232 232 232 231 231 231 230 230 230 231 231 231 231 231 231 231 232 233 232 233 234 234 235 235 235 236 236 237 238 239 241 242 243 245 245 245 245 245 245 245 245 247 248 247 248 251 251 251 252 254 255 256 258 259 260 261 263 265 267 270 274 276 278 280 282 283 285 287 288 291 294 296 298 299 300 301 303 305 307 309 310 310
234 235 235 234 233 232 232 232 231 231 231 230 230 230 230 231 231 231 231 231 230 231 232 233 233 233 234 235 235 235 235 236 236 237 239 240 241 242 243 244 244 245 245 245 245 245 244 246 248 248 248 250 252 252 254 255 255 256 258 259 259 260 261 264 267 270 272 274 276 279 282 283 283 284 287 291 292 293 296 297 299 301 303 305 306 307 308 308
234 235 235 234 233 232 232 232 231 231 231 230 230 230 231 231 231 231 231 231 231 231 231 232 232 233 233 233 234 234 234 235 236 237 238 239 240 241 242 243 245 246 246 246 246 246 246 246 248 249 248 249 252 253 254 255 256 257 257 258 259 260 260 263 267 269 271 273 275 278 280 281 282 284 286 288 289 290 293 295 298 300 302 304 306 306 307 306
233 234 235 235 233 232 232 232 231 231 230 230 230 230 230 231 231 231 231 231 231 231 231 232 232 232 233 233 233 233 233 234 235 236 238 238 239 240 241 242 244 246 246 247 246 246 246 246 248 249 249 248 251 253 255 255 256 256 257 257 259 261 262 263 265 267 269 272 274 276 278 279 281 283 284 284 286 288 291 293 295 298 300 302 304 305 306 305
232 233 235 235 234 233 232 232 231 231 230 230 229 229 230 230 231 231 231 231 231 231 232 232 233 232 233 233 234 234 234 234 234 235 236 238 238 238 239 241 243 244 245 246 247 247 247 247 247 249 250 249 250 253 254 254 254 256 258 259 260 262 264 264 264 266 268 271 273 275 278 279 280 281 282 284 286 287 289 291 293 296 298 299 301 302 304 304
231 232 234 235 235 233 232 232 231 231 230 229 229 229 229 230 230 231 232 232 231 231 231 232 232 232 233 234 234 234 233 233 234 234 235 237 237 238 239 241 243 245 245 247 249 248 248 247 246 248 250 250 249 252 254 254 255 257 259 260 261 262 263 264 265 267 268 269 271 273 277 280 281 281 282 284 286 287 288 289 291 294 295 297 298 299 301 303
230 231 233 235 235 234 233 232 231 231 230 230 229 229 229 229 230 230 231 232 232 231 231 231 231 231 232 233 234 234 233 233 234 234 235 237 238 238 240 241 242 244 245 247 248 248 248 248 248 248 251 250 250 251 253 254 256 258 259 260 261 262 263 265 266 267 268 269 271 272 273 276 279 280 281 284 287 288 289 290 291 292 294 295 296 296 299 301
228 230 232 234 235 235 233 232 232 231 230 229 229 229 229 229 229 230 230 231 231 230 230 231 231 231 231 232 233 233 232 233 235 235 235 237 237 237 239 240 242 244 245 246 247 248 248 250 249 249 250 251 250 251 253 255 257 258 259 260 261 262 263 264 266 267 268 269 270 271 272 274 277 279 281 284 287 288 289 290 290 291 293 294 294 294 296 297
227 228 230 233 234 235 234 233 232 231 230 229 229 228 228 228 228 229 230 230 230 230 229 229 230 230 230 231 232 233 232 232 233 233 234 236 236 236 238 241 242 243 244 245 246 247 248 250 250 249 249 251 251 252 254 255 256 257 258 259 260 262 263 265 266 267 267 268 269 270 271 273 276 278 280 284 286 287 288 289 289 290 291 292 293 293 294 295
226 227 229 231 233 234 234 233 232 232 230 229 229 229 228 228 228 228 229 229 229 229 229 228 229 229 229 230 231 232 232 232 233 233 233 234 235 235 237 239 241 241 243 243 245 246 246 248 248 248 249 251 252 252 254 254 255 256 257 259 260 262 264 265 265 266 266 267 268 269 270 272 274 277 280 283 284 286 288 288 288 289 290 290 291 292 292 294
225 225 227 229 232 234 234 233 233 232 231 229 229 229 229 229 228 228 228 229 229 229 229 228 229 229 229 229 231 231 231 232 232 233 233 234 234 234 235 237 239 240 242 243 244 245 245 246 247 249 250 250 251 252 253 254 254 255 256 259 261 262 263 264 264 265 266 267 268 269 270 271 273 276 280 282 283 285 287 288 287 288 289 289 290 291 293 294
224 224 225 227 230 233 234 234 233 232 231 230 229 229 229 228 227 227 227 228 228 228 228 228 227 228 228 229 231 231 231 231 232 233 233 234 234 235 235 236 238 240 241 242 243 244 245 246 247 249 250 251 251 251 253 254 254 255 256 257 258 260 261 263 264 265 265 266 268 269 270 271 273 277 279 281 282 285 287 287 286 287 287 289 290 292 294 295